Wind_Speed
63 66 62 49 51 61 63 63 63 55 58 60 52 51 49 50 38 40 47 43 37 22 14 15 14 20 21 22 24 29 30 31 32 28 31 32 33 32 31 29 30 26 25 27
71 70 48 46 55 56 60 59 61 58 57 56 59 58 48 55 42 46 46 37 26 19 14 14 20 20 21 20 20 24 26 28 27 27 28 30 31 32 30 30 28 26 27 27
74 58 52 51 51 54 51 55 54 51 51 57 58 58 48 52 48 45 37 31 22 18 16 19 23 21 21 20 22 22 22 24 26 26 27 29 31 30 30 29 27 26 28 27
74 59 60 56 52 49 50 52 49 45 47 51 47 55 48 43 45 36 30 26 21 17 18 20 21 21 19 21 20 20 21 23 23 24 26 28 29 29 28 25 25 27 26 25
73 70 67 62 54 52 46 46 43 43 43 47 49 54 39 39 35 21 31 25 22 16 19 21 20 18 19 19 21 20 20 21 20 22 25 26 26 23 24 25 25 24 23 22
71 69 68 61 57 50 45 47 42 47 45 51 42 47 36 30 12 24 29 25 25 19 18 19 17 19 20 20 21 19 20 19 21 22 23 23 22 21 23 23 21 19 20 15
71 75 70 64 61 55 54 47 47 53 52 50 36 43 33 12 22 23 21 24 23 20 22 20 17 20 20 23 19 18 18 18 19 21 20 19 17 17 17 21 17 15 14 8
67 71 72 70 65 57 54 51 50 52 44 39 37 43 19 22 13 16 21 22 23 19 21 19 20 21 22 18 16 15 16 14 17 17 15 14 16 13 17 17 14 12 8 4
51 66 67 70 63 61 55 52 43 46 44 38 34 33 21 26 19 15 15 14 18 16 18 19 19 20 17 11 12 13 10 13 13 16 12 14 16 12 13 14 11 10 5 0
56 67 59 69 62 59 52 41 45 47 48 39 28 24 23 23 18 18 14 10 15 17 20 19 18 20 12 9 10 8 10 11 12 15 10 12 13 10 12 13 11 7 3 3
63 67 55 59 68 62 59 52 50 48 40 37 29 23 28 18 17 18 12 14 14 17 18 16 18 18 9 8 7 8 9 9 11 13 8 11 11 11 10 9 11 7 4 4
66 69 50 57 62 58 54 48 50 46 43 38 25 30 22 18 14 17 13 17 14 16 16 16 20 12 9 6 6 7 7 8 10 9 8 9 10 7 10 10 11 7 6 5
67 65 49 59 52 58 58 51 50 43 38 36 32 26 19 16 8 19 15 17 13 15 13 17 17 10 9 3 4 5 6 7 8 8 7 11 9 5 7 8 8 6 4 6
63 60 62 35 51 54 56 58 56 50 46 39 35 27 21 10 13 19 17 17 16 15 12 18 13 10 8 1 4 4 4 6 7 7 8 11 8 8 7 8 6 5 2 7
48 69 50 46 60 64 63 58 58 56 49 44 35 32 20 19 20 21 21 20 17 15 13 17 11 10 7 1 3 4 2 6 6 6 7 7 9 10 10 9 8 7 5 8
39 54 64 53 54 55 62 61 57 53 48 46 43 23 27 31 35 31 25 25 19 15 16 16 12 10 7 2 2 3 3 7 7 6 5 8 10 11 10 12 10 11 11 8
39 41 55 58 47 49 53 60 54 48 46 42 38 22 35 38 31 33 31 28 21 19 18 15 13 10 8 4 1 2 3 6 6 5 7 9 11 11 13 13 13 13 13 10
41 34 38 53 42 52 44 52 48 45 40 40 33 32 41 39 38 38 36 31 29 25 19 13 11 11 10 6 2 2 4 5 6 5 6 8 10 10 12 14 15 17 15 11
33 41 39 36 60 43 47 52 51 43 42 34 32 43 48 50 46 41 35 32 30 28 21 17 14 10 11 9 4 2 4 5 6 6 6 8 11 11 12 14 16 17 17 12
35 35 37 42 37 41 44 50 49 48 38 31 36 45 49 46 43 42 40 34 35 31 24 17 13 11 11 11 6 3 5 5 6 6 7 9 10 10 11 12 14 17 20 17
26 35 30 36 40 45 48 50 48 46 47 34 37 47 49 46 44 41 39 36 36 32 26 18 12 12 11 13 10 5 4 5 6 6 6 8 9 9 9 10 12 15 17 20
23 26 29 28 44 46 50 47 51 52 44 37 38 47 47 44 43 39 37 37 36 31 23 18 12 11 13 13 13 9 5 5 5 7 6 5 7 9 10 11 12 14 16 17
13 23 26 27 31 46 49 54 50 44 38 38 39 46 47 45 43 40 39 37 36 32 25 21 17 10 13 12 13 11 8 6 5 6 7 5 5 8 11 12 13 13 15 17
18 18 22 26 28 32 46 52 53 47 39 37 39 41 49 49 43 40 39 38 37 34 28 23 19 12 10 14 12 14 12 8 7 6 7 7 6 7 10 12 13 15 16 17
22 18 16 22 25 28 33 45 52 51 43 37 40 38 48 51 48 44 39 39 37 36 32 25 21 15 11 11 14 13 14 12 10 8 8 8 8 8 9 11 12 14 15 16
13 20 21 23 27 29 31 34 41 49 46 43 38 39 45 49 48 47 42 39 37 36 33 29 23 20 17 13 12 15 14 13 12 11 10 11 10 9 10 11 10 9 10 10
Wind_Direction
244 243 246 255 257 254 252 254 260 261 259 264 267 265 267 271 271 274 281 285 291 281 266 286 278 270 263 266 270 278 284 290 290 291 298 304 303 306 308 308 315 307 305 308
240 243 257 250 248 251 253 254 255 261 266 268 269 265 267 270 269 269 276 277 282 269 265 264 266 273 266 267 282 300 292 284 288 292 299 304 305 308 307 308 307 302 306 306
240 253 248 245 245 249 252 251 252 259 263 266 267 268 263 266 267 265 268 267 265 250 250 257 267 275 274 272 293 299 288 290 288 289 301 304 308 306 309 307 302 306 309 307
237 238 237 236 239 245 250 247 249 256 259 260 266 268 260 261 262 266 256 258 245 245 253 260 266 272 275 279 298 289 290 292 293 298 301 309 308 311 310 308 309 310 309 308
236 233 233 235 242 236 248 252 247 250 253 262 260 264 257 259 261 243 248 245 226 236 251 259 255 262 269 285 289 281 288 296 303 302 309 310 312 315 316 314 311 309 309 313
226 225 229 236 236 239 242 245 243 248 250 257 261 258 253 251 226 228 238 235 225 243 254 255 250 270 279 291 285 281 294 294 303 310 311 314 315 319 322 321 316 315 321 320
223 218 219 224 227 228 227 229 234 242 245 258 258 246 242 218 228 225 225 229 231 247 246 247 254 270 284 286 282 294 294 295 307 313 319 321 322 330 344 336 331 329 326 329
215 211 214 219 223 229 231 232 234 241 250 265 244 240 240 203 210 226 229 222 232 249 240 248 259 273 284 282 293 297 291 303 314 331 334 332 335 324 346 343 335 332 346 344
211 209 213 214 216 221 221 225 233 240 251 252 245 241 198 198 225 221 219 231 231 241 242 244 260 273 275 291 305 297 298 311 329 342 336 335 338 339 344 351 348 348 350 108
196 198 204 208 211 217 222 224 228 232 237 238 229 222 197 204 217 221 232 227 231 224 233 250 260 277 265 296 308 291 303 325 337 341 332 341 358 7 2 4 18 16 34 135
200 199 196 206 205 211 211 212 217 226 236 237 223 214 192 210 218 221 216 209 221 224 236 248 263 266 260 295 302 287 316 337 338 337 334 342 10 9 17 12 35 39 75 116
200 201 192 204 200 205 212 214 219 229 221 208 213 217 202 217 209 223 213 215 218 231 231 254 265 251 251 291 298 291 325 336 344 347 339 349 13 13 19 22 36 61 81 111
202 201 194 197 198 201 209 209 217 224 227 220 222 221 204 237 214 217 211 221 221 225 237 256 254 240 238 272 308 300 328 340 353 5 353 354 11 25 18 40 47 56 107 116
207 195 197 192 199 203 203 205 214 216 219 223 216 209 213 222 204 214 208 218 223 228 244 258 241 225 225 235 332 310 332 350 4 358 357 3 40 79 54 45 44 28 98 162
214 201 195 186 193 198 200 207 212 214 216 218 224 210 208 203 199 209 212 216 220 227 238 251 229 216 214 128 358 323 1 15 34 3 4 53 76 68 58 61 71 42 12 20
210 208 200 192 192 200 203 206 209 215 216 219 225 210 198 210 194 202 206 217 216 223 236 241 220 216 202 144 27 338 61 44 60 24 45 77 70 62 61 71 73 45 23 25
204 214 205 195 194 199 202 208 213 220 218 219 222 197 198 198 193 198 204 213 211 228 229 231 214 214 196 162 60 17 88 68 82 66 67 79 70 62 59 61 60 48 38 51
210 211 207 201 200 202 201 204 207 216 221 221 216 200 196 190 190 194 202 205 207 212 218 221 210 212 195 168 142 70 110 93 97 92 78 72 75 66 59 56 58 50 41 50
199 214 217 205 205 200 208 204 205 208 215 212 202 197 193 190 198 194 201 197 204 206 208 201 199 204 197 172 171 95 108 113 110 100 99 84 80 75 68 60 60 58 53 66
198 211 213 208 201 199 215 205 205 209 212 202 191 198 197 199 189 191 200 199 201 199 200 194 200 201 195 177 177 141 106 132 128 110 109 98 85 78 68 66 62 63 62 71
202 208 213 213 198 204 208 203 208 209 211 195 191 197 197 197 190 196 192 197 204 204 193 184 194 206 201 193 187 171 128 134 145 138 120 105 95 92 75 71 73 74 75 75
209 204 215 217 211 202 208 202 204 206 209 197 191 195 197 194 193 196 192 197 205 207 192 190 181 199 203 202 198 197 170 136 156 155 142 126 100 97 99 92 83 82 88 89
157 199 210 210 212 215 211 204 206 205 204 196 193 192 196 196 192 195 193 199 206 209 198 191 194 185 200 203 201 203 194 162 154 167 151 146 118 105 112 110 103 95 89 92
159 174 202 215 217 217 216 215 210 206 199 195 194 189 197 198 196 198 197 201 207 209 207 194 199 186 198 205 205 206 202 185 171 174 169 154 148 129 124 128 116 111 104 97
197 202 201 206 207 211 213 219 217 214 203 194 194 188 194 201 203 203 200 203 206 206 212 200 197 196 203 206 208 208 205 206 195 180 180 171 157 155 149 148 140 132 125 115
178 195 204 203 193 188 212 214 220 220 209 201 197 193 193 200 203 206 205 206 208 207 210 213 201 201 208 211 210 207 218 209 202 200 191 185 178 172 170 166 174 168 151 142
Height
5732 5731 5740 5756 5758 5759 5763 5766 5768 5776 5780 5779 5781 5782 5786 5786 5790 5789 5787 5787 5787 5786 5784 5783 5784 5785 5785 5785 5786 5785 5782 5779 5775 5772 5768 5763 5759 5754 5749 5743 5739 5733 5728 5724
5707 5712 5742 5751 5742 5750 5753 5757 5760 5767 5769 5771 5768 5767 5777 5775 5780 5779 5780 5781 5781 5782 5780 5781 5782 5782 5781 5782 5781 5778 5775 5773 5770 5766 5762 5758 5753 5748 5742 5737 5732 5727 5722 5717
5690 5721 5732 5733 5735 5738 5746 5748 5754 5759 5762 5756 5758 5756 5767 5767 5768 5770 5774 5774 5776 5777 5777 5778 5778 5778 5778 5778 5775 5772 5769 5767 5764 5761 5757 5753 5747 5742 5736 5730 5725 5721 5716 5712
5677 5711 5709 5715 5722 5732 5733 5742 5747 5749 5750 5747 5754 5743 5753 5759 5759 5764 5768 5768 5771 5772 5772 5774 5774 5774 5775 5773 5770 5767 5764 5762 5758 5755 5751 5747 5741 5736 5729 5724 5720 5714 5710 5706
5675 5686 5690 5702 5716 5720 5728 5734 5739 5740 5740 5740 5741 5736 5749 5753 5754 5759 5759 5763 5765 5767 5768 5769 5770 5771 5770 5768 5765 5762 5759 5757 5753 5749 5746 5741 5736 5730 5725 5719 5714 5710 5705 5701
5653 5666 5675 5697 5704 5714 5725 5723 5729 5729 5731 5725 5735 5730 5739 5745 5751 5752 5754 5757 5760 5762 5764 5765 5766 5767 5765 5762 5759 5757 5755 5752 5748 5745 5741 5736 5731 5726 5720 5715 5710 5706 5702 5698
5632 5641 5662 5678 5688 5699 5705 5712 5717 5717 5717 5717 5730 5722 5733 5741 5743 5746 5750 5752 5756 5758 5760 5761 5762 5762 5760 5757 5754 5752 5750 5747 5745 5741 5736 5731 5727 5722 5717 5711 5707 5704 5700 5697
5615 5628 5649 5661 5674 5689 5696 5702 5708 5710 5715 5718 5720 5717 5734 5738 5740 5743 5747 5748 5751 5754 5756 5757 5758 5758 5755 5753 5751 5748 5746 5743 5741 5736 5732 5728 5724 5719 5715 5710 5706 5702 5699 5697
5608 5621 5637 5648 5665 5675 5686 5689 5706 5708 5709 5711 5715 5716 5728 5734 5736 5740 5742 5745 5747 5750 5752 5754 5755 5753 5752 5750 5747 5744 5743 5740 5737 5733 5729 5726 5721 5717 5714 5709 5705 5701 5698 5697
5587 5602 5619 5638 5652 5665 5677 5694 5694 5697 5698 5703 5711 5716 5724 5730 5732 5736 5738 5740 5741 5745 5748 5750 5750 5749 5748 5747 5744 5742 5740 5737 5734 5731 5727 5724 5720 5716 5713 5709 5705 5702 5700 5699
5583 5594 5611 5618 5632 5653 5662 5673 5682 5689 5693 5698 5708 5715 5720 5725 5726 5731 5734 5736 5738 5742 5745 5747 5746 5746 5745 5744 5741 5740 5738 5735 5732 5729 5725 5722 5719 5715 5713 5710 5707 5704 5702 5701
5572 5586 5599 5612 5634 5647 5657 5671 5677 5680 5684 5691 5703 5709 5717 5720 5723 5727 5731 5733 5737 5740 5743 5743 5743 5742 5743 5741 5739 5738 5736 5733 5730 5726 5723 5721 5719 5716 5713 5710 5708 5705 5704 5702
5568 5582 5596 5607 5621 5633 5646 5661 5669 5676 5682 5689 5697 5706 5713 5715 5720 5723 5727 5731 5735 5738 5739 5740 5740 5740 5740 5739 5737 5736 5734 5732 5729 5725 5723 5720 5718 5716 5713 5711 5708 5706 5704 5703
5560 5575 5586 5608 5622 5632 5639 5647 5656 5666 5672 5681 5690 5700 5708 5712 5716 5720 5723 5727 5731 5735 5737 5738 5738 5737 5738 5736 5735 5734 5733 5730 5728 5725 5723 5720 5717 5716 5714 5711 5709 5707 5704 5703
5554 5570 5584 5593 5600 5611 5625 5640 5647 5655 5667 5675 5685 5693 5704 5709 5713 5717 5719 5722 5728 5732 5735 5736 5735 5735 5736 5734 5733 5732 5731 5729 5727 5725 5723 5721 5718 5717 5715 5712 5709 5708 5705 5703
5553 5565 5578 5589 5598 5608 5619 5629 5639 5649 5661 5670 5676 5692 5697 5699 5702 5711 5716 5720 5725 5729 5731 5733 5733 5733 5733 5732 5732 5731 5730 5728 5727 5726 5725 5722 5720 5718 5716 5713 5710 5709 5705 5703
5550 5559 5574 5589 5596 5603 5614 5625 5637 5646 5655 5665 5673 5688 5689 5691 5701 5707 5712 5717 5722 5726 5728 5730 5730 5731 5732 5731 5731 5731 5730 5728 5727 5727 5726 5724 5722 5720 5718 5716 5713 5711 5707 5704
5550 5557 5569 5583 5592 5600 5611 5619 5630 5638 5649 5660 5672 5679 5682 5689 5695 5701 5707 5713 5717 5721 5726 5727 5728 5729 5730 5730 5730 5730 5729 5728 5728 5728 5728 5726 5724 5722 5720 5719 5717 5713 5709 5707
5549 5555 5565 5578 5585 5603 5605 5614 5624 5634 5639 5652 5663 5667 5671 5677 5682 5696 5705 5709 5714 5718 5721 5724 5725 5727 5728 5728 5730 5730 5729 5729 5729 5729 5729 5728 5726 5725 5723 5722 5720 5717 5714 5710
5547 5553 5562 5573 5584 5596 5596 5609 5619 5628 5639 5648 5656 5661 5669 5677 5685 5694 5697 5704 5708 5713 5717 5721 5723 5724 5726 5727 5729 5729 5729 5729 5730 5731 5731 5730 5729 5728 5726 5725 5723 5721 5718 5715
5546 5552 5560 5570 5582 5585 5593 5604 5614 5624 5633 5643 5651 5657 5664 5674 5684 5683 5693 5700 5706 5711 5714 5717 5721 5723 5724 5726 5728 5729 5729 5729 5730 5731 5732 5732 5731 5731 5729 5728 5727 5725 5724 5723
5547 5553 5560 5567 5575 5583 5589 5600 5607 5614 5627 5640 5647 5653 5662 5672 5678 5685 5692 5697 5703 5708 5713 5715 5718 5721 5722 5725 5727 5728 5728 5728 5730 5731 5732 5733 5733 5732 5732 5731 5730 5729 5729 5729
5548 5552 5558 5565 5570 5577 5586 5596 5603 5613 5624 5636 5644 5651 5659 5667 5675 5682 5689 5694 5700 5705 5709 5712 5714 5717 5721 5723 5725 5727 5728 5728 5729 5730 5731 5733 5734 5734 5734 5734 5734 5734 5733 5733
5544 5549 5555 5561 5567 5574 5582 5590 5599 5609 5620 5631 5640 5647 5655 5663 5672 5679 5685 5691 5697 5702 5707 5710 5713 5715 5719 5722 5724 5725 5727 5728 5729 5730 5731 5733 5734 5735 5736 5737 5737 5737 5738 5738
5543 5548 5552 5557 5562 5569 5576 5584 5593 5603 5615 5626 5634 5644 5651 5658 5667 5674 5682 5688 5693 5698 5703 5707 5711 5714 5716 5719 5722 5724 5725 5727 5728 5729 5731 5732 5734 5735 5737 5739 5740 5741 5741 5742
5542 5545 5549 5553 5559 5566 5572 5580 5588 5597 5610 5621 5629 5638 5647 5653 5662 5670 5677 5683 5689 5694 5699 5704 5707 5711 5714 5716 5720 5722 5724 5725 5727 5728 5730 5731 5733 5734 5736 5739 5741 5742 5743 5744